Weather reports worldwide

Advertisment
Almeria, Spain (8487): temperature & dewpoint: 08.10.2019 14:00:00 - 14.10.2019 14:00:00 (CEST)Almeria, Spain (8487): wind speed: 08.10.2019 14:00:00 - 14.10.2019 14:00:00 (CEST)Almeria, Spain (8487): wind direction: 08.10.2019 14:00:00 - 14.10.2019 14:00:00 (CEST)Almeria, Spain (8487): reduced air pressure: 08.10.2019 14:00:00 - 14.10.2019 14:00:00 (CEST)Almeria, Spain (8487): visibility: 08.10.2019 14:00:00 - 14.10.2019 14:00:00 (CEST)
Date & Time tt [°C] td [°C] ff [km/h] ff [kn] dd ppp [hPa] vv [km]
14.10.2019 14:00:00 - - - - - - -
14.10.2019 13:00:00 25,7 18,9 35 19 SW 1013,9 -
14.10.2019 12:00:00 25,2 18,5 21 11 SW 1014,0 -
14.10.2019 11:00:00 23,8 19,8 21 11 SW 1014,1 35
14.10.2019 10:00:00 23,5 18,8 21 11 WSW 1014,1 -
14.10.2019 09:00:00 22,5 18,5 8 4 SW 1013,9 -
14.10.2019 08:00:00 22,2 18,0 16 9 WSW 1013,2 30
14.10.2019 07:00:00 21,4 18,0 11 6 W 1013,0 -
14.10.2019 06:00:00 21,6 19,0 9 5 S 1012,6 -
14.10.2019 05:00:00 22,5 13,0 15 8 NNE 1012,0 40
14.10.2019 04:00:00 22,4 15,5 24 13 NNW 1012,2 -
14.10.2019 03:00:00 22,2 16,7 16 9 NNW 1013,3 -
14.10.2019 02:00:00 21,1 17,9 9 5 NE 1014,2 -
14.10.2019 01:00:00 21,7 17,9 9 5 NNE 1014,9 -
14.10.2019 00:00:00 21,7 19,4 9 5 NE 1015,7 -
13.10.2019 23:00:00 22,0 19,4 11 6 NE 1015,5 -
13.10.2019 22:00:00 22,5 19,8 15 8 ENE 1014,6 -
13.10.2019 21:00:00 22,8 19,0 13 7 ENE 1014,5 -
13.10.2019 20:00:00 23,1 19,8 4 2 W 1014,6 30
13.10.2019 19:00:00 24,2 19,7 9 5 SW 1014,6 -
13.10.2019 18:00:00 24,9 20,3 9 5 SSW 1014,7 -
13.10.2019 17:00:00 25,3 20,0 8 4 SSE 1015,2 30
13.10.2019 16:00:00 25,7 20,2 9 5 S 1015,7 -
13.10.2019 15:00:00 25,5 20,0 11 6 SSW 1016,0 -
13.10.2019 14:00:00 25,1 20,2 11 6 SSW 1016,7 30
13.10.2019 13:00:00 25,3 20,3 11 6 SSW 1017,1 -
13.10.2019 12:00:00 25,4 17,5 8 4 S 1017,5 -
13.10.2019 11:00:00 24,2 17,3 5 3 S 1017,3 30
13.10.2019 10:00:00 21,9 16,4 8 4 WNW 1017,2 -
13.10.2019 09:00:00 19,8 15,9 11 6 NNW 1016,8 -
13.10.2019 08:00:00 19,6 16,8 4 2 NNE 1016,2 40
13.10.2019 07:00:00 18,9 16,9 8 4 NNE 1015,7 -
13.10.2019 06:00:00 20,3 16,7 8 4 NW 1015,5 -
13.10.2019 05:00:00 20,0 18,5 5 3 N 1015,9 20
13.10.2019 04:00:00 20,3 18,6 4 2 NNE 1015,9 -
13.10.2019 03:00:00 20,5 18,6 2 1 N 1016,3 -
13.10.2019 02:00:00 20,9 19,0 4 2 N 1016,6 -
13.10.2019 01:00:00 21,6 19,5 0 0 N 1016,8 -
13.10.2019 00:00:00 22,0 19,9 0 0 N 1016,9 -
12.10.2019 23:00:00 22,7 20,3 5 3 SW 1016,5 -
12.10.2019 22:00:00 23,3 19,8 8 4 NNW 1015,8 -
12.10.2019 21:00:00 23,9 19,6 15 8 NE 1015,2 -
12.10.2019 20:00:00 24,6 19,4 22 12 ENE 1014,7 40
12.10.2019 19:00:00 26,5 19,1 26 14 ENE 1014,4 -
12.10.2019 18:00:00 28,2 19,3 24 13 E 1014,4 -
12.10.2019 17:00:00 29,1 19,4 22 12 E 1014,9 45
12.10.2019 16:00:00 29,8 19,8 18 10 E 1014,9 -
12.10.2019 15:00:00 28,0 20,0 13 7 SSE 1015,7 -
12.10.2019 14:00:00 27,5 20,3 15 8 SSE 1016,9 40
12.10.2019 13:00:00 28,3 19,0 15 8 E 1017,7 -
12.10.2019 12:00:00 26,4 18,8 21 11 ENE 1017,9 -
12.10.2019 11:00:00 23,5 17,3 4 2 N 1018,0 45
12.10.2019 10:00:00 21,7 17,3 0 0 N 1017,6 -
12.10.2019 09:00:00 20,1 17,5 9 5 N 1016,7 -
12.10.2019 08:00:00 19,9 17,1 9 5 N 1016,7 35
12.10.2019 07:00:00 19,6 17,2 8 4 N 1017,1 -
12.10.2019 06:00:00 20,2 17,8 4 2 NW 1016,9 -
12.10.2019 05:00:00 21,2 18,0 8 4 N 1016,7 35
12.10.2019 04:00:00 21,2 18,4 8 4 N 1016,5 -
12.10.2019 03:00:00 21,7 18,7 9 5 NW 1017,3 -
12.10.2019 02:00:00 21,4 18,6 8 4 NNW 1017,9 -
12.10.2019 01:00:00 22,1 18,9 9 5 NNW 1018,2 -
12.10.2019 00:00:00 21,6 18,6 8 4 NE 1018,5 -
11.10.2019 23:00:00 22,7 18,9 11 6 NE 1018,6 -
11.10.2019 22:00:00 23,1 18,8 13 7 ENE 1017,8 -
11.10.2019 21:00:00 24,0 18,5 15 8 ENE 1017,3 -
11.10.2019 20:00:00 24,4 18,8 13 7 NE 1017,0 45
11.10.2019 19:00:00 24,9 18,9 24 13 ENE 1017,0 -
11.10.2019 18:00:00 26,6 18,7 13 7 ENE 1017,6 -
11.10.2019 17:00:00 28,2 17,9 22 12 E 1017,6 50
11.10.2019 16:00:00 29,0 16,9 18 10 E 1017,9 -
11.10.2019 15:00:00 28,2 17,6 28 15 E 1018,2 -
11.10.2019 14:00:00 29,5 15,9 28 15 E 1018,8 50
11.10.2019 13:00:00 28,5 14,8 24 13 ENE 1019,8 -
11.10.2019 12:00:00 28,0 13,3 8 4 NNE 1020,3 -
11.10.2019 11:00:00 26,1 12,5 9 5 NW 1020,5 50
11.10.2019 10:00:00 23,8 14,5 15 8 NNW 1020,0 -
11.10.2019 09:00:00 21,7 15,0 22 12 NW 1019,3 -
11.10.2019 08:00:00 21,4 15,0 16 9 NW 1019,1 50
11.10.2019 07:00:00 21,6 15,7 21 11 NW 1018,9 -
11.10.2019 06:00:00 22,3 15,6 16 9 NW 1018,9 -
11.10.2019 05:00:00 20,9 16,1 9 5 N 1019,1 50
11.10.2019 04:00:00 21,5 16,4 11 6 NNW 1019,4 -
11.10.2019 03:00:00 21,1 16,7 2 1 N 1019,8 -
11.10.2019 02:00:00 22,1 17,5 15 8 NNE 1020,0 -
11.10.2019 01:00:00 22,3 17,7 11 6 NE 1020,2 -
11.10.2019 00:00:00 22,5 18,1 15 8 ENE 1020,1 -
10.10.2019 23:00:00 23,0 17,9 22 12 NE 1019,8 -
10.10.2019 22:00:00 23,4 17,6 18 10 NE 1019,5 -
10.10.2019 21:00:00 23,4 18,1 28 15 E 1018,5 -
10.10.2019 20:00:00 23,9 18,3 31 17 ENE 1018,2 40
10.10.2019 19:00:00 25,7 17,9 26 14 E 1018,2 -
10.10.2019 18:00:00 27,2 18,0 34 18 E 1017,9 -
10.10.2019 17:00:00 28,2 17,4 34 18 ENE 1018,0 40
10.10.2019 16:00:00 28,8 16,7 31 17 E 1018,3 -
10.10.2019 15:00:00 28,9 16,8 31 17 E 1018,3 -
10.10.2019 14:00:00 28,7 16,3 34 18 E 1019,0 45
10.10.2019 13:00:00 28,5 16,5 34 18 E 1019,8 -
10.10.2019 12:00:00 27,4 16,7 29 16 ENE 1020,0 -
10.10.2019 11:00:00 26,2 17,1 28 15 ENE 1020,1 45
10.10.2019 10:00:00 23,6 16,8 11 6 NNW 1020,0 -
10.10.2019 09:00:00 21,6 16,3 9 5 NE 1019,3 -
10.10.2019 08:00:00 20,5 16,4 8 4 N 1018,6 45
10.10.2019 07:00:00 20,9 16,3 8 4 NNW 1018,2 -
10.10.2019 06:00:00 20,8 15,6 11 6 N 1018,0 -
10.10.2019 05:00:00 21,1 15,9 9 5 N 1017,8 30
10.10.2019 04:00:00 20,6 17,4 4 2 N 1017,7 -
10.10.2019 03:00:00 20,7 17,5 8 4 NE 1018,0 -
10.10.2019 02:00:00 20,8 18,2 9 5 N 1017,8 -
10.10.2019 01:00:00 20,8 18,5 8 4 N 1017,8 -
10.10.2019 00:00:00 20,8 17,8 9 5 NNE 1017,8 -
09.10.2019 23:00:00 21,0 18,6 5 3 N 1017,5 -
09.10.2019 22:00:00 21,4 19,1 4 2 NNW 1016,9 -
09.10.2019 21:00:00 21,5 19,4 0 0 N 1016,6 -
09.10.2019 20:00:00 22,1 19,5 5 3 SSW 1016,1 40
09.10.2019 19:00:00 23,4 19,3 8 4 S 1015,8 -
09.10.2019 18:00:00 24,2 19,5 9 5 S 1015,5 -
09.10.2019 17:00:00 24,6 19,5 11 6 S 1015,7 40
09.10.2019 16:00:00 24,9 19,6 13 7 S 1016,0 -
09.10.2019 15:00:00 24,8 19,0 13 7 S 1016,3 -
09.10.2019 14:00:00 25,0 19,1 15 8 S 1016,8 40
09.10.2019 13:00:00 25,7 18,8 13 7 S 1017,3 -
09.10.2019 12:00:00 26,3 16,7 9 5 S 1017,5 -
09.10.2019 11:00:00 24,3 16,2 4 2 NW 1017,7 40
09.10.2019 10:00:00 22,6 15,4 9 5 NW 1017,4 -
09.10.2019 09:00:00 19,9 14,9 11 6 NW 1017,2 -
09.10.2019 08:00:00 18,7 14,6 9 5 N 1016,8 40
09.10.2019 07:00:00 18,4 14,7 9 5 NNW 1016,5 -
09.10.2019 06:00:00 19,3 14,3 9 5 N 1016,5 -
09.10.2019 05:00:00 19,7 14,3 9 5 N 1016,6 -
09.10.2019 04:00:00 19,9 14,1 9 5 N 1017,2 -
09.10.2019 03:00:00 20,1 14,5 8 4 N 1017,5 -
09.10.2019 02:00:00 20,7 15,3 8 4 NNE 1017,6 -
09.10.2019 01:00:00 21,3 16,5 11 6 NNE 1017,8 -
09.10.2019 00:00:00 21,3 16,3 11 6 NE 1018,1 -
08.10.2019 23:00:00 21,6 16,0 11 6 ENE 1017,8 -
08.10.2019 22:00:00 22,0 16,3 9 5 NNE 1017,7 -
08.10.2019 21:00:00 22,4 15,5 9 5 E 1017,5 -
08.10.2019 20:00:00 23,5 15,3 11 6 E 1017,7 45
08.10.2019 19:00:00 24,0 18,2 11 6 SSE 1017,6 -
08.10.2019 18:00:00 25,0 17,3 15 8 SSE 1017,6 -
08.10.2019 17:00:00 25,9 16,5 18 10 SE 1017,8 40
08.10.2019 16:00:00 26,7 16,8 21 11 SE 1018,4 -
08.10.2019 15:00:00 28,5 17,3 21 11 E 1018,5 -
08.10.2019 14:00:00 26,9 18,2 21 11 ESE 1019,4 40

tt = temperature
td = dewpoint
ff = wind speed
dd = wind direction
ppp = reduced air pressure
vv = visibility

Next stations